Regional Weather Roundup
Issued by NWS Midland/Odessa, TX

Skip options and go directly to product.
Home | Oldest Version | Previous Version | Current Version | All | Text Only | Save Text | Print | Product List | Glossary Off

Skip product version selection by date and time.   

944
ASUS44 KMAF 302210
RWRMAF
MIDLAND AREA WEATHER ROUNDUP
NATIONAL WEATHER SERVICE MIDLAND TX
500 PM CDT SAT AUG 30 2014

...IN SOUTHWEST TEXAS AND SOUTHEAST NEW MEXICO...

CITY           SKY/WX    TMP DP  RH WIND       PRES   REMARKS
ALPINE         MOSUNNY   91  48  23 NE5G16    30.10F
ANDREWS        FAIR      92  47  21 SE9       29.98F
ARTESIA        NOT AVBL
BIG SPRING     SUNNY     94  50  22 E7        29.97F
CARLSBAD       SUNNY     97  29   9 VRB5      29.95F
DRYDEN           N/A    101  59  24 SE12      29.88F HX 101
FORT STOCKTON  SUNNY     93  52  24 CALM      29.95F
GUAD PASS      PTSUNNY   87  43  21 VRB5      30.14F
HOBBS          MOSUNNY   91  45  19 E8        30.01F
MARFA          MOSUNNY   88  48  25 SE6       30.10F
MIDLAND AIRPK  NOT AVBL
MIDLAND INTL   MOSUNNY   95  51  22 E7        29.95F
ODESSA         MOSUNNY   94  50  22 VRB7      29.96F
PECOS          SUNNY     97  46  17 E14       29.91F
PRESIDIO       CLOUDY    97  53  22 SE5       29.90S
SEMINOLE       MOSUNNY   94  46  18 E6        30.00S
SNYDER         SUNNY     93  52  24 E9G17     29.96F
WINK           SUNNY     98  42  14 SE6       29.92F
$$
...OTHER STATIONS IN TEXAS...

CITY           SKY/WX    TMP DP  RH WIND       PRES   REMARKS
ABILENE        PTSUNNY   96  58  27 E13       29.92F
AMARILLO       PTSUNNY   93  49  22 S14       29.97F
AUSTIN         PTSUNNY   94  68  42 E9        29.86F
BROWNSVILLE    CLOUDY    84  77  79 E14       29.88R
CORPUS CHRISTI PTSUNNY   85  72  65 E15       29.88S
DALLAS FTW     MOSUNNY   93  67  42 NE3       29.87F
DEL RIO        MOSUNNY  100  63  29 SE7       29.82F HX 102
EL PASO        MOSUNNY   96  34  11 S9        29.98F
HOUSTON INT    PTSUNNY   88  75  66 SE14      29.90S
LUBBOCK        MOSUNNY   93  49  22 SE12      29.99F
SAN ANGELO     MOSUNNY   97  61  30 VRB5      29.91F
SAN ANTONIO    MOSUNNY   95  68  41 SE13G20   29.87F
WACO           PTSUNNY   94  67  41 E9        29.88F
WICHITA FALLS  NOT AVBL
$$
...OTHER LOCATIONS IN NEW MEXICO...

CITY           SKY/WX    TMP DP  RH WIND       PRES   REMARKS
ALAMAGORDO     SUNNY     93  41  16 SW8       30.00F
ALBUQUERQUE    PTSUNNY   89  39  17 S6        30.07F
CANNON AFB     SUNNY     92  45  19 SW10G23   30.00F
CLOVIS           N/A     90  45  20 S16       30.02F
HOLLOMAN AFB   PTSUNNY   93  43  17 SW12      29.97F
ROSWELL        SUNNY     94  45  18 S10G16    29.96F
RUIDOSO        MOSUNNY   81  39  22 S5        30.22F
SANTA FE       SUNNY     85  36  17 SW10G20   30.13F
TRUTH OR CONSE SUNNY     92  40  16 SE8       30.02F
TUCUMCARI      MOSUNNY   96  40  14 SW15      29.94F
$$

USA.gov is the U.S. government's official web portal to all federal, state and local government web resources and services.